Lander, WY

12:08 AM MDT on May 25, 2018 (GMT -0600)
Hunt

Weather History for KLND - May, 2012

Change the Weather History Date:

Monday, May 28, 2012

  Actual Average Record
Temperature  
Mean Temperature 50 °F 57 °F  
Max Temperature 63 °F 70 °F 90 °F (2003)
Min Temperature 37 °F 43 °F 27 °F (1947)
Degree Days  
Heating Degree Days 15 8  
Month to date heating degree days 302 344  
Since 1 July heating degree days 6745 7598  
Cooling Degree Days 0 0  
Month to date cooling degree days 8 0  
Year to date cooling degree days 9 0  
Growing Degree Days 1 (Base 50)    
Moisture  
Dew Point 26 °F    
Average Humidity 40    
Maximum Humidity 59    
Minimum Humidity 21    
Precipitation  
Precipitation 0.00 in 0.06 in 1.24 in (1956)
Month to date precipitation 1.84 2.01  
Year to date precipitation 4.53 6.03  
Snow  
Snow 0.00 in 0.10 in - ()
Month to date snowfall 0.6 4.8  
Since 1 July snowfall 63.9 91.3  
Snow Depth 0.00 in    
Sea Level Pressure  
Sea Level Pressure 29.91 in    
Wind  
Wind Speed 11 mph (West)    
Max Wind Speed 24 mph    
Max Gust Speed 33 mph    
Visibility 10 miles    
Events      
T = Trace of Precipitation, MM = Missing Value Source: NWS Daily Summary

Daily Weather History Graph

Daily Weather History Graph

Search for Another Location

Airport or City:

Astronomy

May. 28, 2012 Rise Set
Actual Time 5:41 AM MDT 8:43 PM MDT
Civil Twilight 5:07 AM MDT 9:18 PM MDT
Nautical Twilight 4:23 AM MDT 10:01 PM MDT
Astronomical Twilight 3:32 AM MDT 10:53 PM MDT
Moon 1:02 PM MDT (5/28) 1:16 AM MDT (5/28)
Length of Visible Light 16h 10m
Length of Day
15h 02m
Waxing Crescent, 49% of the Moon is Illuminated
May 28
Waxing Crescent
May 28
First Quarter
Jun 4
Full
Jun 11
Last Quarter
Jun 19
New

Hourly Weather History & Observations

Time (MDT) Temp. Windchill Dew Point Humidity Pressure Visibility Wind Dir Wind Speed Gust Speed Precip Events Conditions
12:53 AM 43.0 °F 40.3 °F 27.0 °F 53% 29.82 in 10.0 mi SSW 4.6 mph - N/A   Partly Cloudy
1:53 AM 46.0 °F 40.2 °F 23.0 °F 40% 29.81 in 10.0 mi West 12.7 mph - N/A   Clear
2:53 AM 41.0 °F - 25.0 °F 53% 29.85 in 10.0 mi Calm Calm - N/A   Clear
3:53 AM 39.9 °F 36.7 °F 26.1 °F 58% 29.85 in 10.0 mi NNE 4.6 mph - N/A   Clear
4:53 AM 41.0 °F - 25.0 °F 53% 29.87 in 10.0 mi Calm Calm - N/A   Clear
5:53 AM 39.0 °F - 26.1 °F 60% 29.91 in 10.0 mi Calm Calm - N/A   Clear
6:53 AM 43.0 °F 40.3 °F 27.0 °F 53% 29.92 in 10.0 mi SW 4.6 mph - N/A   Clear
7:53 AM 50.0 °F - 28.9 °F 44% 29.89 in 10.0 mi SW 8.1 mph - N/A   Clear
8:53 AM 55.0 °F - 26.1 °F 33% 29.89 in 10.0 mi WNW 11.5 mph - N/A   Clear
9:53 AM 57.9 °F - 27.0 °F 31% 29.89 in 10.0 mi West 17.3 mph 20.7 mph N/A   Overcast
10:53 AM 60.1 °F - 26.1 °F 27% 29.89 in 10.0 mi West 17.3 mph 21.9 mph N/A   Scattered Clouds
11:53 AM 59.0 °F - 25.0 °F 27% 29.90 in 10.0 mi WNW 18.4 mph 29.9 mph N/A   Partly Cloudy
12:53 PM 62.1 °F - 27.0 °F 26% 29.89 in 10.0 mi West 18.4 mph 29.9 mph N/A   Clear
1:53 PM 63.0 °F - 25.0 °F 24% 29.89 in 10.0 mi West 19.6 mph - N/A   Clear
2:53 PM 63.0 °F - 26.1 °F 25% 29.92 in 10.0 mi West 24.2 mph 32.2 mph N/A   Mostly Cloudy
3:53 PM 63.0 °F - 25.0 °F 24% 29.93 in 10.0 mi West 21.9 mph 28.8 mph N/A   Clear
4:53 PM 62.1 °F - 24.1 °F 23% 29.93 in 10.0 mi WNW 15.0 mph 27.6 mph N/A   Scattered Clouds
5:53 PM 62.1 °F - 23.0 °F 22% 29.95 in 10.0 mi WNW 16.1 mph 24.2 mph N/A   Clear
6:53 PM 61.0 °F - 24.1 °F 24% 29.95 in 10.0 mi West 15.0 mph 21.9 mph N/A   Clear
7:53 PM 59.0 °F - 25.0 °F 27% 29.94 in 10.0 mi West 9.2 mph - N/A   Clear
8:53 PM 52.0 °F - 27.0 °F 38% 29.96 in 10.0 mi WSW 8.1 mph - N/A   Clear
9:53 PM 51.1 °F - 26.1 °F 38% 29.99 in 10.0 mi WNW 4.6 mph - N/A   Clear
10:53 PM 50.0 °F - 27.0 °F 41% 30.00 in 10.0 mi WSW 10.4 mph - N/A   Clear
11:53 PM 48.0 °F - 27.0 °F 44% 30.01 in 10.0 mi Calm Calm - N/A   Clear